TimeEST,TemperatureF,Dew PointF,Humidity,Sea Level PressureIn,VisibilityMPH,Wind Direction,Wind SpeedMPH,Gust SpeedMPH,PrecipitationIn,Events,Conditions,WindDirDegrees,DateUTC
12:53 AM,12.0,-2.0,53,30.31,10.0,WNW,10.4,-,N/A,,Clear,290,2014-01-08 05:53:00
1:53 AM,14.0,-0.0,54,30.33,10.0,West,12.7,20.7,N/A,,Clear,280,2014-01-08 06:53:00
2:53 AM,14.0,1.0,56,30.35,10.0,WNW,17.3,23.0,N/A,,Clear,290,2014-01-08 07:53:00
3:53 AM,15.1,1.0,54,30.37,10.0,WNW,13.8,21.9,N/A,,Clear,290,2014-01-08 08:53:00
4:53 AM,16.0,5.0,62,30.37,10.0,WNW,11.5,-,N/A,,Clear,290,2014-01-08 09:53:00
5:53 AM,16.0,3.0,57,30.40,10.0,WNW,12.7,-,N/A,,Clear,290,2014-01-08 10:53:00
6:53 AM,14.0,-0.0,54,30.41,10.0,WNW,9.2,-,N/A,,Clear,290,2014-01-08 11:53:00
7:53 AM,16.0,-0.0,49,30.45,10.0,WNW,11.5,-,N/A,,Clear,290,2014-01-08 12:53:00
8:53 AM,19.0,3.9,52,30.47,10.0,WNW,10.4,-,N/A,,Clear,290,2014-01-08 13:53:00
9:53 AM,21.0,6.1,53,30.48,10.0,West,12.7,20.7,N/A,,Clear,270,2014-01-08 14:53:00
10:53 AM,21.0,8.1,57,30.47,10.0,West,18.4,23.0,N/A,,Scattered Clouds,270,2014-01-08 15:53:00
11:17 AM,23.0,10.4,59,30.46,10.0,West,16.1,-,N/A,,Mostly Cloudy,270,2014-01-08 16:17:00
11:53 AM,21.9,10.9,63,30.43,10.0,West,15.0,-,N/A,,Mostly Cloudy,270,2014-01-08 16:53:00
12:53 PM,23.0,12.0,63,30.40,10.0,West,15.0,-,N/A,,Mostly Cloudy,260,2014-01-08 17:53:00
1:53 PM,24.1,14.0,65,30.41,10.0,West,15.0,23.0,N/A,,Mostly Cloudy,270,2014-01-08 18:53:00
2:32 PM,24.8,12.2,59,30.41,10.0,West,10.4,-,N/A,,Scattered Clouds,280,2014-01-08 19:32:00
2:42 PM,23.0,14.0,68,30.41,10.0,West,11.5,-,N/A,,Mostly Cloudy,260,2014-01-08 19:42:00
2:53 PM,23.0,14.0,68,30.41,10.0,West,15.0,-,N/A,,Scattered Clouds,260,2014-01-08 19:53:00
3:53 PM,24.1,14.0,65,30.42,10.0,WSW,13.8,-,N/A,,Scattered Clouds,250,2014-01-08 20:53:00
4:53 PM,24.1,12.9,62,30.43,10.0,WSW,15.0,21.9,N/A,,Scattered Clouds,250,2014-01-08 21:53:00
5:53 PM,24.1,14.0,65,30.43,10.0,WSW,13.8,-,N/A,,Mostly Cloudy,250,2014-01-08 22:53:00
6:53 PM,25.0,14.0,63,30.44,10.0,West,9.2,-,N/A,,Mostly Cloudy,270,2014-01-08 23:53:00
7:53 PM,24.1,14.0,65,30.45,10.0,West,11.5,-,N/A,,Partly Cloudy,270,2014-01-09 00:53:00
8:53 PM,25.0,15.1,66,30.46,10.0,West,9.2,-,N/A,,Mostly Cloudy,270,2014-01-09 01:53:00
9:53 PM,23.0,10.9,60,30.45,10.0,WNW,10.4,-,N/A,,Partly Cloudy,300,2014-01-09 02:53:00
10:53 PM,21.0,8.1,57,30.45,10.0,WNW,9.2,-,N/A,,Clear,300,2014-01-09 03:53:00
11:53 PM,21.0,7.0,55,30.45,10.0,WNW,9.2,-,N/A,,Clear,300,2014-01-09 04:53:00